W4GHW Weather Reports


time (UTC)temp
F
wind
direction
speed
knots
gust
knots
rain 1hr
in
rain 24hr
in
rain mn
in
humidity
%
barometer
mb
20260504011004 64 302 0.0 0.0 0.00 0.02 0.00 50 1018.7
20260504010004 65 302 0.0 0.0 0.00 0.02 0.00 50 1018.7
20260504005004 66 302 0.0 0.9 0.00 0.02 0.00 48 1018.6
20260504004003 67 302 0.0 0.0 0.00 0.02 0.00 45 1018.5
20260504003004 69 302 0.0 0.0 0.00 0.02 0.00 42 1018.5
20260504002004 70 302 0.0 0.0 0.00 0.02 0.00 39 1018.4
20260504000004 72 302 0.9 2.6 0.00 0.04 0.00 36 1018.4
20260503081004 51 332 1.7 2.6 0.00 0.55 0.00 71 1019.0
20260503071004 52 320 0.9 2.6 0.00 0.64 0.00 67 1018.5
20260503054005 54 355 0.9 1.7 0.00 0.91 0.00 65 1018.4
20260503053005 55 355 0.9 2.6 0.00 0.94 0.00 62 1018.3
20260503052004 55 328 0.9 2.6 0.00 0.98 0.00 61 1018.2
20260503051005 55 349 0.9 4.3 0.00 1.02 0.00 60 1018.1
20260503050005 56 338 1.7 4.3 0.00 1.05 0.00 60 1018.0
20260503045004 56 336 1.7 4.3 0.00 1.07 0.00 60 1017.9
20260503043004 57 329 2.6 4.3 0.00 1.12 0.00 59 1017.9
20260503042004 57 340 1.7 2.6 0.00 1.14 0.00 58 1017.8
20260503041005 58 339 1.7 2.6 0.00 1.15 0.00 57 1017.6
20260503040005 58 343 1.7 4.3 0.00 1.18 0.00 57 1017.5
20260503035004 58 337 1.7 2.6 0.00 1.21 1.18 56 1017.4
20260503034005 59 336 1.7 5.2 0.00 1.21 1.18 56 1017.3
20260503032004 60 345 1.7 5.2 0.00 1.22 1.18 56 1017.3
20260503025004 60 331 1.7 4.3 0.00 1.22 1.18 60 1017.1
20260503024005 61 333 1.7 2.6 0.00 1.24 1.18 62 1016.9
20260503023004 61 319 1.7 4.3 0.00 1.27 1.18 64 1016.8
20260503022005 61 338 1.7 7.8 0.00 1.29 1.18 67 1016.7
20260503021004 61 343 1.7 6.1 0.00 1.31 1.18 70 1016.4
20260503015005 61 320 1.7 6.1 0.00 1.35 1.18 78 1015.8
20260503014005 60 291 1.7 6.1 0.00 1.35 1.18 82 1015.5
20260503013003 61 290 0.0 0.0 0.00 1.35 1.18 83 1015.3